Location: ??????
(55.2000°N, 38.3000°E)
Time: 00:40:44
(UTC+00:00)

Cosmos 1980 - Pass Details

Date: 15 November 2025
Orbit: 836 x 847 km, 71.0° (Epoch: 12 December)

Event Time Altitude Azimuth Distance (km) Brightness Sun altitude
Exits shadow 03:22:32 17° 262° (W) 2,018 5.1 -13.6°
Maximum altitude 03:26:21 36° 320° (NW) 1,309 4.3 -13.0°
Drops below altitude 10° 03:31:36 10° 27° (NNE) 2,480 6.3 -12.3°
Sets 03:34:16 0° 36° (NE) 3,420 7.1 -11.9°
